カタログに戻る

MIDAS 4 DEB

運用中PO
NORAD 42664·DEBRIS·🇺🇸 United States

打ち上げ Oct 21, 1961 から Vandenberg Space Force Base

Loading…

次のパス (今後24時間)

TLE

古いSource: Space-Track

元期: May 24, 2026, 15:58 UTC

1 42664U 61028K   26144.66556090  .00000069  00000-0  30911-1 0  9993
2 42664  95.8511 232.1451 0353936 247.0178 109.2971  8.69062930348411

AllMySatでMIDAS 4 DEBをリアルタイム追跡

Download on the App Store